Time,TemperatureF,DewpointF,PressureIn,WindDirection,WindDirectionDegrees,WindSpeedMPH,WindSpeedGustMPH,Humidity,HourlyPrecipIn,Conditions,Clouds,dailyrainin,SoftwareType,DateUTC
2013-05-03 00:00:00,72.5,70.4,29.95,SE,135,1.9,5.0,93,0.00,,BKN045,0.00,VWS V13.01,2013-05-02 14:00:00,
2013-05-03 00:15:00,72.4,69.9,29.94,SE,135,0.6,3.8,92,0.00,,BKN045,0.00,VWS V13.01,2013-05-02 14:15:00,
2013-05-03 00:30:00,72.4,70.3,29.94,SE,135,0.6,2.5,93,0.00,,BKN045,0.00,VWS V13.01,2013-05-02 14:30:00,
2013-05-03 00:45:00,72.4,70.3,29.94,SE,135,1.9,7.5,93,0.02,,BKN045,0.02,VWS V13.01,2013-05-02 14:45:00,
2013-05-03 01:00:00,72.0,69.9,29.94,SE,135,1.9,6.2,93,0.02,,BKN045,0.02,VWS V13.01,2013-05-02 15:00:00,
2013-05-03 01:15:00,71.9,69.8,29.93,SE,135,3.1,12.5,93,0.02,,BKN045,0.02,VWS V13.01,2013-05-02 15:15:00,
2013-05-03 01:30:00,72.2,69.8,29.93,SE,135,3.1,8.7,92,0.02,,BKN045,0.02,VWS V13.01,2013-05-02 15:30:00,
2013-05-03 01:45:00,72.3,69.8,29.93,SE,135,3.1,12.5,92,0.02,,BKN045,0.02,VWS V13.01,2013-05-02 15:45:00,
2013-05-03 02:00:00,72.3,69.5,29.93,SE,135,1.9,6.2,91,0.00,,BKN045,0.02,VWS V13.01,2013-05-02 16:00:00,
2013-05-03 02:15:00,72.4,69.3,29.92,SE,135,3.1,8.7,90,0.00,,BKN045,0.02,VWS V13.01,2013-05-02 16:15:00,
2013-05-03 02:30:00,72.6,69.5,29.93,SE,135,3.1,7.5,90,0.02,,BKN045,0.03,VWS V13.01,2013-05-02 16:30:00,
2013-05-03 02:45:00,72.0,69.6,29.92,SSE,158,1.9,6.2,92,0.02,,BKN045,0.04,VWS V13.01,2013-05-02 16:45:00,
2013-05-03 03:00:00,71.5,69.1,29.92,SSE,158,3.1,7.5,92,0.02,,BKN045,0.04,VWS V13.01,2013-05-02 17:00:00,
2013-05-03 03:15:00,71.4,69.0,29.92,SSE,158,1.9,7.5,92,0.02,,BKN045,0.04,VWS V13.01,2013-05-02 17:15:00,
2013-05-03 03:30:00,71.6,69.5,29.92,SSE,158,1.9,5.0,93,0.02,,BKN045,0.04,VWS V13.01,2013-05-02 17:30:00,
2013-05-03 03:45:00,72.0,69.6,29.91,SE,135,1.9,5.0,92,0.01,,BKN045,0.04,VWS V13.01,2013-05-02 17:45:00,
2013-05-03 04:00:00,72.3,69.5,29.91,SSE,158,3.1,6.2,91,0.00,,BKN045,0.04,VWS V13.01,2013-05-02 18:00:00,
2013-05-03 04:15:00,72.8,69.7,29.92,SE,135,3.1,10.0,90,0.00,,BKN045,0.04,VWS V13.01,2013-05-02 18:15:00,
2013-05-03 04:30:00,72.3,69.8,29.92,SSE,158,1.9,6.2,92,0.02,,BKN045,0.06,VWS V13.01,2013-05-02 18:30:00,
2013-05-03 04:45:00,71.9,69.8,29.93,SSE,158,0.6,0.0,93,0.02,,BKN045,0.06,VWS V13.01,2013-05-02 18:45:00,
2013-05-03 05:15:00,71.9,70.1,29.93,ESE,112,1.9,6.2,94,0.11,,BKN045,0.15,VWS V13.01,2013-05-02 19:15:00,
2013-05-03 05:30:00,71.8,70.0,29.93,ESE,112,0.6,0.0,94,0.14,,BKN045,0.18,VWS V13.01,2013-05-02 19:30:00,
2013-05-03 05:45:00,71.7,70.2,29.94,ESE,112,0.6,0.0,95,0.17,,BKN045,0.22,VWS V13.01,2013-05-02 19:45:00,
2013-05-03 06:00:00,71.7,70.2,29.95,ESE,112,0.6,0.0,95,0.17,,BKN045,0.23,VWS V13.01,2013-05-02 20:00:00,
2013-05-03 06:15:00,71.6,70.1,29.95,ESE,112,0.6,0.0,95,0.11,,BKN045,0.23,VWS V13.01,2013-05-02 20:15:00,
2013-05-03 06:30:00,71.7,70.2,29.96,SE,135,0.6,2.5,95,0.09,,BKN045,0.24,VWS V13.01,2013-05-02 20:30:00,
2013-05-03 06:45:00,71.6,70.1,29.96,SE,135,1.9,6.2,95,0.06,,BKN045,0.24,VWS V13.01,2013-05-02 20:45:00,
2013-05-03 07:00:00,71.6,70.1,29.97,SSE,158,1.9,6.2,95,0.02,,BKN045,0.24,VWS V13.01,2013-05-02 21:00:00,
2013-05-03 07:04:00,71.7,70.2,29.97,SE,143,0.6,10.0,95,0.32,,BKN045,0.24,VWS V13.01,2013-05-02 21:04:00,
2013-05-03 07:09:00,71.8,70.3,29.98,SE,133,3.1,10.0,95,0.32,,BKN045,0.24,VWS V13.01,2013-05-02 21:09:00,
2013-05-03 07:20:00,71.8,70.3,29.98,SE,135,1.9,6.2,95,0.01,,BKN045,0.24,VWS V13.01,2013-05-02 21:20:00,
2013-05-03 07:25:00,72.1,70.6,29.99,SSE,166,0.6,6.2,95,0.00,,BKN045,0.24,VWS V13.01,2013-05-02 21:25:00,
2013-05-03 07:30:00,72.1,70.6,29.99,SE,139,1.9,6.2,95,0.00,,BKN045,0.24,VWS V13.01,2013-05-02 21:30:00,
2013-05-03 07:34:00,72.3,70.8,29.99,SSE,158,0.6,6.2,95,0.00,,BKN045,0.24,VWS V13.01,2013-05-02 21:34:00,
2013-05-03 07:39:00,72.5,71.0,29.98,South,171,3.1,6.2,95,0.00,,BKN045,0.24,VWS V13.01,2013-05-02 21:39:00,
2013-05-03 07:44:00,72.6,71.1,29.99,South,183,3.1,6.2,95,0.00,,BKN045,0.24,VWS V13.01,2013-05-02 21:44:00,
2013-05-03 07:49:00,72.6,70.8,29.99,SE,142,1.9,6.2,94,0.00,,BKN037,0.24,VWS V13.01,2013-05-02 21:49:00,
2013-05-03 07:54:00,72.6,70.8,29.99,SE,137,1.9,6.2,94,0.00,,BKN037,0.24,VWS V13.01,2013-05-02 21:54:00,
2013-05-03 07:59:00,72.6,70.8,29.99,SE,145,1.9,6.2,94,0.00,,BKN037,0.24,VWS V13.01,2013-05-02 21:59:00,
2013-05-03 08:04:00,72.6,70.8,30.00,SSE,159,0.6,6.2,94,0.00,,BKN037,0.24,VWS V13.01,2013-05-02 22:04:00,
2013-05-03 08:09:00,72.5,70.4,30.00,SSE,155,5.6,6.2,93,0.00,,BKN037,0.24,VWS V13.01,2013-05-02 22:09:00,
2013-05-03 08:14:00,72.4,70.3,30.00,SE,133,0.6,6.2,93,0.00,,BKN037,0.24,VWS V13.01,2013-05-02 22:14:00,
2013-05-03 08:46:00,72.7,70.9,30.01,SE,144,1.9,6.2,94,0.00,,BKN040,0.24,VWS V13.01,2013-05-02 22:46:00,
2013-05-03 08:51:00,72.5,70.7,30.01,SSW,192,3.1,6.2,94,0.01,,BKN040,0.24,VWS V13.01,2013-05-02 22:51:00,
2013-05-03 08:56:00,72.4,70.6,30.01,SE,138,5.6,6.2,94,0.01,,BKN040,0.24,VWS V13.01,2013-05-02 22:56:00,
2013-05-03 09:03:00,72.7,70.6,30.01,SSW,202,5.6,6.2,93,0.01,,BKN040,0.24,VWS V13.01,2013-05-02 23:03:00,
2013-05-03 09:07:00,72.8,70.7,30.01,South,173,1.9,6.2,93,0.01,,BKN040,0.24,VWS V13.01,2013-05-02 23:07:00,
2013-05-03 09:12:00,72.9,70.8,30.02,South,190,3.1,6.2,93,0.01,,BKN040,0.24,VWS V13.01,2013-05-02 23:12:00,
2013-05-03 13:17:00,80.6,71.2,29.94,East,79,9.4,9.4,73,0.00,,BKN060,0.24,VWS V13.01,2013-05-03 03:17:00,
2013-05-03 13:22:00,80.0,71.0,29.94,SE,142,4.4,6.2,74,0.00,,BKN060,0.24,VWS V13.01,2013-05-03 03:22:00,
2013-05-03 13:27:00,80.0,70.6,29.94,ESE,105,10.6,10.6,73,0.00,,BKN060,0.24,VWS V13.01,2013-05-03 03:27:00,
2013-05-03 14:30:00,80.9,70.6,29.93,SE,142,3.1,6.2,71,0.00,,BKN060,0.24,VWS V13.01,2013-05-03 04:30:00,
2013-05-03 14:45:00,81.3,71.0,29.93,SE,135,4.4,11.3,71,0.00,,OVC066,0.24,VWS V13.01,2013-05-03 04:45:00,
2013-05-03 15:00:00,81.6,71.3,29.93,SE,135,6.9,15.0,71,0.00,,OVC066,0.24,VWS V13.01,2013-05-03 05:00:00,
2013-05-03 15:15:00,80.8,71.3,29.92,SE,135,4.4,12.5,73,0.00,,OVC066,0.24,VWS V13.01,2013-05-03 05:15:00,
2013-05-03 15:30:00,80.9,70.2,29.92,SE,135,6.9,13.7,70,0.00,,OVC066,0.24,VWS V13.01,2013-05-03 05:30:00,
2013-05-03 15:45:00,80.5,70.7,29.92,SE,135,5.6,16.3,72,0.00,,OVC066,0.24,VWS V13.01,2013-05-03 05:45:00,
2013-05-03 16:00:00,80.2,71.2,29.93,SE,135,4.4,15.0,74,0.00,,OVC066,0.24,VWS V13.01,2013-05-03 06:00:00,
2013-05-03 16:15:00,79.7,70.7,29.93,SE,135,3.1,8.7,74,0.00,,OVC066,0.24,VWS V13.01,2013-05-03 06:15:00,
2013-05-03 16:30:00,79.5,70.5,29.94,SE,135,4.4,15.0,74,0.00,,OVC066,0.24,VWS V13.01,2013-05-03 06:30:00,
2013-05-03 16:45:00,79.3,70.3,29.94,SE,135,3.1,11.3,74,0.00,,OVC066,0.24,VWS V13.01,2013-05-03 06:45:00,
2013-05-03 17:00:00,79.0,70.4,29.94,SE,135,4.4,11.3,75,0.00,,OVC066,0.24,VWS V13.01,2013-05-03 07:00:00,
2013-05-03 17:15:00,78.5,70.7,29.95,SE,135,5.6,13.7,77,0.00,,OVC066,0.24,VWS V13.01,2013-05-03 07:15:00,
2013-05-03 17:30:00,77.5,70.5,29.95,SE,135,3.1,8.7,79,0.00,,OVC066,0.24,VWS V13.01,2013-05-03 07:30:00,
2013-05-03 17:45:00,77.1,70.5,29.96,SE,135,1.9,8.7,80,0.00,,OVC066,0.24,VWS V13.01,2013-05-03 07:45:00,
2013-05-03 18:00:00,77.0,70.4,29.96,SE,135,3.1,7.5,80,0.00,,OVC066,0.24,VWS V13.01,2013-05-03 08:00:00,
2013-05-03 18:15:00,77.0,70.4,29.97,SE,135,1.9,5.0,80,0.00,,OVC066,0.24,VWS V13.01,2013-05-03 08:15:00,
2013-05-03 18:30:00,76.9,70.6,29.97,SE,135,1.9,6.2,81,0.00,,OVC066,0.24,VWS V13.01,2013-05-03 08:30:00,
2013-05-03 18:45:00,76.7,70.1,29.97,SE,135,1.9,6.2,80,0.00,,OVC066,0.24,VWS V13.01,2013-05-03 08:45:00,
2013-05-03 19:00:00,76.6,70.0,29.98,SE,135,1.9,7.5,80,0.00,,OVC066,0.24,VWS V13.01,2013-05-03 09:00:00,
2013-05-03 19:15:00,76.4,70.1,29.98,SE,135,1.9,6.2,81,0.00,,OVC066,0.24,VWS V13.01,2013-05-03 09:15:00,
2013-05-03 19:30:00,76.1,69.8,29.99,SE,135,3.1,7.5,81,0.00,,OVC066,0.24,VWS V13.01,2013-05-03 09:30:00,
2013-05-03 19:45:00,75.9,69.7,29.99,SE,135,3.1,8.7,81,0.00,,OVC066,0.24,VWS V13.01,2013-05-03 09:45:00,
2013-05-03 20:00:00,75.8,69.6,30.00,SE,135,3.1,7.5,81,0.00,,OVC066,0.24,VWS V13.01,2013-05-03 10:00:00,
2013-05-03 20:15:00,75.6,69.7,30.00,SE,135,3.1,11.3,82,0.00,,OVC066,0.24,VWS V13.01,2013-05-03 10:15:00,
2013-05-03 20:30:00,75.6,69.7,30.01,SE,135,4.4,12.5,82,0.00,,OVC066,0.24,VWS V13.01,2013-05-03 10:30:00,
2013-05-03 20:45:00,75.4,69.5,30.01,SE,135,3.1,8.7,82,0.00,,OVC066,0.24,VWS V13.01,2013-05-03 10:45:00,
2013-05-03 21:00:00,75.1,69.6,30.01,SE,135,4.4,12.5,83,0.00,,OVC066,0.24,VWS V13.01,2013-05-03 11:00:00,
2013-05-03 21:15:00,74.9,69.7,30.01,SE,135,3.1,10.0,84,0.00,,OVC066,0.24,VWS V13.01,2013-05-03 11:15:00,
2013-05-03 21:30:00,74.3,70.2,30.01,SE,135,3.1,7.5,87,0.00,,OVC066,0.24,VWS V13.01,2013-05-03 11:30:00,
2013-05-03 21:45:00,73.4,69.6,30.01,SE,135,3.1,6.2,88,0.00,,OVC066,0.24,VWS V13.01,2013-05-03 11:45:00,
2013-05-03 22:00:00,73.5,69.4,30.01,SE,135,3.1,10.0,87,0.00,,OVC066,0.24,VWS V13.01,2013-05-03 12:00:00,
2013-05-03 22:15:00,73.6,69.2,30.01,SE,135,1.9,7.5,86,0.00,,OVC066,0.24,VWS V13.01,2013-05-03 12:15:00,
2013-05-03 22:30:00,73.8,69.3,30.01,SE,135,1.9,6.2,86,0.00,,OVC066,0.24,VWS V13.01,2013-05-03 12:30:00,
2013-05-03 22:45:00,73.9,68.8,30.01,SE,135,1.9,6.2,84,0.00,,OVC066,0.24,VWS V13.01,2013-05-03 12:45:00,
2013-05-03 23:00:00,74.2,68.4,30.01,SE,135,1.9,7.5,82,0.00,,OVC066,0.24,VWS V13.01,2013-05-03 13:00:00,
2013-05-03 23:15:00,74.5,68.7,30.01,SE,135,1.9,5.0,82,0.00,,OVC066,0.24,VWS V13.01,2013-05-03 13:15:00,
2013-05-03 23:30:00,74.7,68.8,30.01,SE,135,3.1,8.7,82,0.00,,OVC066,0.24,VWS V13.01,2013-05-03 13:30:00,
2013-05-03 23:45:00,74.9,69.0,30.01,SE,135,3.1,7.5,82,0.00,,OVC066,0.24,VWS V13.01,2013-05-03 13:45:00,